Location: Bassano
(45.7667°N, 11.7333°E)
Time: 23:25:05
(UTC+00:00)

ISS - Pass Details

Date: 11 March 2021
Orbit: 418 x 421 km, 51.6° (Epoch: 22 April)

Event Time Altitude Azimuth Distance (km) Brightness Sun altitude
Exits shadow 03:59:13 50° 247° (WSW) 540 -3.7 -17.1°
Maximum altitude 03:59:38 55° 214° (SW) 508 -3.7 -17.1°
Drops below altitude 10° 04:02:55 10° 136° (SE) 1,492 -0.5 -16.5°
Sets 04:05:02 0° 131° (SE) 2,352 0.6 -16.1°
